Time,TemperatureF,DewpointF,PressureIn,WindDirection,WindDirectionDegrees,WindSpeedMPH,WindSpeedGustMPH,Humidity,HourlyPrecipIn,Conditions,Clouds,dailyrainin,SoftwareType,DateUTC
2013-03-22 00:00:00,24.6,18.0,29.20,SSW,202,1.9,2.6,72,0.00,,,0.00,Rainwise IP-100,2013-03-22 04:00:00,
2013-03-22 00:05:00,24.6,18.0,29.20,SSW,202,1.4,2.1,72,0.00,,,0.00,Rainwise IP-100,2013-03-22 04:05:00,
2013-03-22 00:10:00,24.5,18.0,29.20,SSW,202,1.2,3.0,73,0.00,,,0.00,Rainwise IP-100,2013-03-22 04:10:00,
2013-03-22 00:11:00,24.5,18.0,29.20,SSW,202,1.6,3.0,73,0.00,,,0.00,Rainwise IP-100,2013-03-22 04:11:00,
2013-03-22 00:16:00,24.3,16.0,29.20,SSW,202,0.0,2.1,73,0.00,,,0.00,Rainwise IP-100,2013-03-22 04:16:00,
2013-03-22 00:21:00,24.1,16.0,29.20,SSW,202,2.6,3.0,73,0.00,,,0.00,Rainwise IP-100,2013-03-22 04:21:00,
2013-03-22 00:26:00,24.1,16.0,29.20,SSW,202,1.6,2.8,73,0.00,,,0.00,Rainwise IP-100,2013-03-22 04:26:00,
2013-03-22 00:31:00,24.4,16.0,29.21,SSW,202,1.2,2.3,72,0.00,,,0.00,Rainwise IP-100,2013-03-22 04:31:00,
2013-03-22 00:37:00,24.7,18.0,29.20,WSW,247,2.1,2.1,71,0.00,,,0.00,Rainwise IP-100,2013-03-22 04:37:00,
2013-03-22 00:42:00,25.1,18.0,29.20,SW,225,1.9,2.6,70,0.00,,,0.00,Rainwise IP-100,2013-03-22 04:42:00,
2013-03-22 00:47:00,24.7,18.0,29.20,ESE,112,2.1,3.7,70,0.00,,,0.00,Rainwise IP-100,2013-03-22 04:47:00,
2013-03-22 00:52:00,23.9,16.0,29.20,SSE,157,0.0,2.3,72,0.00,,,0.00,Rainwise IP-100,2013-03-22 04:52:00,
2013-03-22 00:57:00,23.6,18.0,29.21,SE,135,3.0,4.7,74,0.00,,,0.00,Rainwise IP-100,2013-03-22 04:57:00,
2013-03-22 01:02:00,23.5,18.0,29.21,South,180,1.2,4.7,74,0.00,,,0.00,Rainwise IP-100,2013-03-22 05:02:00,
2013-03-22 01:07:00,23.5,18.0,29.20,SSW,202,1.6,5.4,74,0.00,,,0.00,Rainwise IP-100,2013-03-22 05:07:00,
2013-03-22 01:12:00,23.4,16.0,29.21,South,180,0.0,2.3,74,0.00,,,0.00,Rainwise IP-100,2013-03-22 05:12:00,
2013-03-22 01:17:00,23.2,16.0,29.21,South,180,1.4,1.9,74,0.00,,,0.00,Rainwise IP-100,2013-03-22 05:17:00,
2013-03-22 01:22:00,23.1,16.0,29.20,South,180,0.0,1.4,74,0.00,,,0.00,Rainwise IP-100,2013-03-22 05:22:00,
2013-03-22 01:27:00,22.9,16.0,29.21,South,180,0.0,1.2,75,0.00,,,0.00,Rainwise IP-100,2013-03-22 05:27:00,
2013-03-22 01:32:00,22.7,16.0,29.20,South,180,0.0,1.2,76,0.00,,,0.00,Rainwise IP-100,2013-03-22 05:32:00,
2013-03-22 01:37:00,22.5,16.0,29.20,South,180,1.2,1.9,76,0.00,,,0.00,Rainwise IP-100,2013-03-22 05:37:00,
2013-03-22 01:42:00,22.3,16.0,29.21,South,180,2.1,2.1,77,0.00,,,0.00,Rainwise IP-100,2013-03-22 05:42:00,
2013-03-22 01:47:00,22.1,16.0,29.21,SSW,202,0.0,4.0,78,0.00,,,0.00,Rainwise IP-100,2013-03-22 05:47:00,
2013-03-22 01:52:00,22.0,16.0,29.21,SSW,202,0.0,3.7,78,0.00,,,0.00,Rainwise IP-100,2013-03-22 05:52:00,
2013-03-22 01:57:00,22.0,16.0,29.21,SW,225,0.0,1.4,79,0.00,,,0.00,Rainwise IP-100,2013-03-22 05:57:00,
2013-03-22 02:02:00,21.8,16.0,29.21,SW,225,0.0,0.0,79,0.00,,,0.00,Rainwise IP-100,2013-03-22 06:02:00,
2013-03-22 02:07:00,21.6,16.0,29.21,SW,225,1.2,2.1,79,0.00,,,0.00,Rainwise IP-100,2013-03-22 06:07:00,
2013-03-22 02:13:00,21.6,18.0,29.21,SW,225,1.2,2.1,80,0.00,,,0.00,Rainwise IP-100,2013-03-22 06:13:00,
2013-03-22 02:18:00,21.8,18.0,29.20,SW,225,0.0,1.9,80,0.00,,,0.00,Rainwise IP-100,2013-03-22 06:18:00,
2013-03-22 02:23:00,21.7,18.0,29.21,SW,225,0.0,1.9,81,0.00,,,0.00,Rainwise IP-100,2013-03-22 06:23:00,
2013-03-22 02:28:00,21.5,18.0,29.21,SW,225,0.0,1.2,81,0.00,,,0.00,Rainwise IP-100,2013-03-22 06:28:00,
2013-03-22 02:33:00,21.1,16.0,29.21,SW,225,0.0,1.2,81,0.00,,,0.00,Rainwise IP-100,2013-03-22 06:33:00,
2013-03-22 02:38:00,20.8,16.0,29.21,SW,225,0.0,0.0,82,0.00,,,0.00,Rainwise IP-100,2013-03-22 06:38:00,
2013-03-22 02:43:00,20.7,16.0,29.21,SW,225,1.4,2.3,82,0.00,,,0.00,Rainwise IP-100,2013-03-22 06:43:00,
2013-03-22 02:48:00,20.9,16.0,29.21,SW,225,0.0,2.1,83,0.00,,,0.00,Rainwise IP-100,2013-03-22 06:48:00,
2013-03-22 02:53:00,20.8,16.0,29.21,NW,315,0.0,2.1,83,0.00,,,0.00,Rainwise IP-100,2013-03-22 06:53:00,
2013-03-22 02:58:00,20.4,16.0,29.20,NW,315,0.0,1.4,83,0.00,,,0.00,Rainwise IP-100,2013-03-22 06:58:00,
2013-03-22 03:03:00,20.2,16.0,29.21,NW,315,0.0,0.0,83,0.00,,,0.00,Rainwise IP-100,2013-03-22 07:03:00,
2013-03-22 03:08:00,20.3,16.0,29.21,NW,315,0.0,0.0,84,0.00,,,0.00,Rainwise IP-100,2013-03-22 07:08:00,
2013-03-22 03:13:00,20.3,16.0,29.20,NW,315,0.0,0.0,84,0.00,,,0.00,Rainwise IP-100,2013-03-22 07:13:00,
2013-03-22 03:18:00,20.1,16.0,29.20,NW,315,0.0,0.0,84,0.00,,,0.00,Rainwise IP-100,2013-03-22 07:18:00,
2013-03-22 03:23:00,20.1,16.0,29.21,NW,315,0.0,0.0,84,0.00,,,0.00,Rainwise IP-100,2013-03-22 07:23:00,
2013-03-22 03:29:00,20.0,16.0,29.20,NW,315,0.0,0.0,85,0.00,,,0.00,Rainwise IP-100,2013-03-22 07:29:00,
2013-03-22 03:34:00,19.7,16.0,29.20,NW,315,0.0,0.0,85,0.00,,,0.00,Rainwise IP-100,2013-03-22 07:34:00,
2013-03-22 03:39:00,19.4,16.0,29.20,NW,315,0.0,0.0,85,0.00,,,0.00,Rainwise IP-100,2013-03-22 07:39:00,
2013-03-22 03:44:00,19.4,16.0,29.20,NW,315,0.0,0.0,85,0.00,,,0.00,Rainwise IP-100,2013-03-22 07:44:00,
2013-03-22 03:49:00,19.3,16.0,29.20,NW,315,0.0,0.0,86,0.00,,,0.00,Rainwise IP-100,2013-03-22 07:49:00,
2013-03-22 03:54:00,19.3,16.0,29.20,NW,315,0.0,0.0,86,0.00,,,0.00,Rainwise IP-100,2013-03-22 07:54:00,
2013-03-22 03:59:00,19.2,16.0,29.20,NW,315,0.0,0.0,86,0.00,,,0.00,Rainwise IP-100,2013-03-22 07:59:00,
2013-03-22 04:04:00,19.1,16.0,29.20,NW,315,0.0,0.0,86,0.00,,,0.00,Rainwise IP-100,2013-03-22 08:04:00,
2013-03-22 04:09:00,18.7,16.0,29.20,NW,315,0.0,0.0,86,0.00,,,0.00,Rainwise IP-100,2013-03-22 08:09:00,
2013-03-22 04:14:00,18.3,16.0,29.20,WSW,247,0.0,0.0,86,0.00,,,0.00,Rainwise IP-100,2013-03-22 08:14:00,
2013-03-22 04:19:00,18.2,16.0,29.20,WSW,247,1.4,1.4,87,0.00,,,0.00,Rainwise IP-100,2013-03-22 08:19:00,
2013-03-22 04:24:00,18.3,16.0,29.20,SW,225,1.4,2.6,88,0.00,,,0.00,Rainwise IP-100,2013-03-22 08:24:00,
2013-03-22 04:29:00,18.3,16.0,29.20,SSW,202,1.9,3.0,88,0.00,,,0.00,Rainwise IP-100,2013-03-22 08:29:00,
2013-03-22 04:34:00,18.3,16.0,29.20,SSW,202,1.6,2.6,88,0.00,,,0.00,Rainwise IP-100,2013-03-22 08:34:00,
2013-03-22 04:39:00,18.2,16.0,29.20,SSW,202,0.0,2.3,88,0.00,,,0.00,Rainwise IP-100,2013-03-22 08:39:00,
2013-03-22 04:45:00,18.1,16.0,29.20,SSW,202,0.0,1.6,88,0.00,,,0.00,Rainwise IP-100,2013-03-22 08:45:00,
2013-03-22 04:50:00,18.0,16.0,29.20,SSW,202,0.0,1.4,89,0.00,,,0.00,Rainwise IP-100,2013-03-22 08:50:00,
2013-03-22 04:55:00,18.0,16.0,29.20,SSW,202,1.2,1.9,89,0.00,,,0.00,Rainwise IP-100,2013-03-22 08:55:00,
2013-03-22 05:00:00,18.1,16.0,29.20,SSW,202,0.0,2.1,89,0.00,,,0.00,Rainwise IP-100,2013-03-22 09:00:00,
2013-03-22 05:05:00,17.9,16.0,29.20,SSW,202,0.0,0.0,89,0.00,,,0.00,Rainwise IP-100,2013-03-22 09:05:00,
2013-03-22 05:10:00,17.7,16.0,29.20,SSW,202,0.0,1.2,89,0.00,,,0.00,Rainwise IP-100,2013-03-22 09:10:00,
2013-03-22 05:15:00,17.6,16.0,29.20,SSW,202,0.0,0.0,89,0.00,,,0.00,Rainwise IP-100,2013-03-22 09:15:00,
2013-03-22 05:20:00,17.5,16.0,29.20,SSW,202,0.0,0.0,89,0.00,,,0.00,Rainwise IP-100,2013-03-22 09:20:00,
2013-03-22 05:25:00,17.4,16.0,29.20,SSW,202,0.0,1.2,90,0.00,,,0.00,Rainwise IP-100,2013-03-22 09:25:00,
2013-03-22 05:30:00,17.5,16.0,29.20,SSW,202,0.0,1.4,90,0.00,,,0.00,Rainwise IP-100,2013-03-22 09:30:00,
2013-03-22 05:35:00,17.5,16.0,29.20,SSW,202,0.0,1.2,90,0.00,,,0.00,Rainwise IP-100,2013-03-22 09:35:00,
2013-03-22 05:40:00,17.3,16.0,29.20,SSW,202,0.0,0.0,90,0.00,,,0.00,Rainwise IP-100,2013-03-22 09:40:00,
2013-03-22 05:45:00,17.1,16.0,29.20,SSW,202,0.0,0.0,90,0.00,,,0.00,Rainwise IP-100,2013-03-22 09:45:00,
2013-03-22 05:50:00,16.9,16.0,29.20,SSW,202,0.0,1.2,90,0.00,,,0.00,Rainwise IP-100,2013-03-22 09:50:00,
2013-03-22 05:55:00,16.9,16.0,29.20,SSW,202,0.0,1.4,90,0.00,,,0.00,Rainwise IP-100,2013-03-22 09:55:00,
2013-03-22 06:01:00,17.0,16.0,29.21,SSW,202,0.0,0.0,91,0.00,,,0.00,Rainwise IP-100,2013-03-22 10:01:00,
2013-03-22 06:06:00,16.9,16.0,29.20,SSW,202,0.0,0.0,91,0.00,,,0.00,Rainwise IP-100,2013-03-22 10:06:00,
2013-03-22 06:11:00,16.7,16.0,29.20,SSW,202,0.0,1.4,91,0.00,,,0.00,Rainwise IP-100,2013-03-22 10:11:00,
2013-03-22 06:16:00,16.5,16.0,29.21,SSW,202,0.0,1.4,91,0.00,,,0.00,Rainwise IP-100,2013-03-22 10:16:00,
2013-03-22 06:21:00,16.2,14.0,29.21,SSW,202,0.0,0.0,91,0.00,,,0.00,Rainwise IP-100,2013-03-22 10:21:00,
2013-03-22 06:26:00,16.1,14.0,29.21,SSW,202,0.0,1.2,91,0.00,,,0.00,Rainwise IP-100,2013-03-22 10:26:00,
2013-03-22 06:31:00,16.0,14.0,29.21,SSW,202,0.0,1.2,91,0.00,,,0.00,Rainwise IP-100,2013-03-22 10:31:00,
2013-03-22 06:36:00,15.9,14.0,29.21,SSW,202,0.0,1.2,91,0.00,,,0.00,Rainwise IP-100,2013-03-22 10:36:00,
2013-03-22 06:42:00,15.9,14.0,29.21,SSW,202,0.0,1.2,92,0.00,,,0.00,Rainwise IP-100,2013-03-22 10:42:00,
2013-03-22 06:47:00,15.7,14.0,29.21,SSW,202,0.0,0.0,92,0.00,,,0.00,Rainwise IP-100,2013-03-22 10:47:00,
2013-03-22 06:52:00,15.5,14.0,29.22,SSW,202,1.2,1.2,92,0.00,,,0.00,Rainwise IP-100,2013-03-22 10:52:00,
2013-03-22 06:57:00,15.5,14.0,29.22,SSW,202,0.0,2.1,92,0.00,,,0.00,Rainwise IP-100,2013-03-22 10:57:00,
2013-03-22 07:02:00,15.6,14.0,29.22,SSW,202,0.0,1.4,92,0.00,,,0.00,Rainwise IP-100,2013-03-22 11:02:00,
2013-03-22 07:07:00,15.6,14.0,29.22,SSW,202,0.0,1.2,92,0.00,,,0.00,Rainwise IP-100,2013-03-22 11:07:00,
2013-03-22 07:12:00,15.7,14.0,29.22,SSW,202,1.2,3.7,92,0.00,,,0.00,Rainwise IP-100,2013-03-22 11:12:00,
2013-03-22 07:17:00,15.9,14.0,29.22,SSE,157,0.0,2.6,92,0.00,,,0.00,Rainwise IP-100,2013-03-22 11:17:00,
2013-03-22 07:22:00,15.9,14.0,29.22,SSE,157,0.0,0.0,92,0.00,,,0.00,Rainwise IP-100,2013-03-22 11:22:00,
2013-03-22 07:27:00,16.1,14.0,29.23,SSE,157,0.0,1.2,92,0.00,,,0.00,Rainwise IP-100,2013-03-22 11:27:00,
2013-03-22 07:32:00,16.5,16.0,29.22,SSE,157,0.0,1.6,92,0.00,,,0.00,Rainwise IP-100,2013-03-22 11:32:00,
2013-03-22 07:37:00,17.0,16.0,29.23,SSE,157,0.0,1.6,92,0.00,,,0.00,Rainwise IP-100,2013-03-22 11:37:00,
2013-03-22 07:42:00,17.5,16.0,29.23,ENE,67,1.4,2.3,92,0.00,,,0.00,Rainwise IP-100,2013-03-22 11:42:00,
2013-03-22 07:47:00,17.6,16.0,29.23,ENE,67,1.4,3.5,91,0.00,,,0.00,Rainwise IP-100,2013-03-22 11:47:00,
2013-03-22 07:53:00,18.3,16.0,29.23,SSW,202,1.9,2.3,92,0.00,,,0.00,Rainwise IP-100,2013-03-22 11:53:00,
2013-03-22 07:58:00,19.3,18.0,29.23,SSW,202,2.6,5.1,93,0.00,,,0.00,Rainwise IP-100,2013-03-22 11:58:00,
2013-03-22 08:03:00,20.0,18.0,29.24,SSW,202,2.1,4.2,94,0.00,,,0.00,Rainwise IP-100,2013-03-22 12:03:00,
2013-03-22 08:08:00,21.0,18.0,29.24,SSE,157,2.1,4.0,94,0.00,,,0.00,Rainwise IP-100,2013-03-22 12:08:00,
2013-03-22 08:13:00,21.8,21.0,29.24,SSW,202,0.0,4.0,95,0.00,,,0.00,Rainwise IP-100,2013-03-22 12:13:00,
2013-03-22 08:18:00,22.6,21.0,29.24,SE,135,0.0,3.5,95,0.00,,,0.00,Rainwise IP-100,2013-03-22 12:18:00,
2013-03-22 08:23:00,23.2,23.0,29.25,SSE,157,0.0,3.5,96,0.00,,,0.00,Rainwise IP-100,2013-03-22 12:23:00,
2013-03-22 08:28:00,23.7,23.0,29.25,South,180,3.0,3.3,96,0.00,,,0.00,Rainwise IP-100,2013-03-22 12:28:00,
2013-03-22 08:33:00,24.2,23.0,29.24,SSW,202,2.6,4.4,95,0.00,,,0.00,Rainwise IP-100,2013-03-22 12:33:00,
2013-03-22 08:38:00,24.2,23.0,29.24,SSW,202,3.3,4.0,94,0.00,,,0.00,Rainwise IP-100,2013-03-22 12:38:00,
2013-03-22 08:43:00,24.1,23.0,29.24,ESE,112,1.4,4.2,92,0.00,,,0.00,Rainwise IP-100,2013-03-22 12:43:00,
2013-03-22 08:48:00,24.2,23.0,29.25,South,180,2.8,3.7,92,0.00,,,0.00,Rainwise IP-100,2013-03-22 12:48:00,
2013-03-22 08:53:00,24.3,23.0,29.25,SSW,202,1.9,4.2,91,0.00,,,0.00,Rainwise IP-100,2013-03-22 12:53:00,
2013-03-22 08:58:00,24.5,24.0,29.25,SSW,202,2.3,4.4,90,0.00,,,0.00,Rainwise IP-100,2013-03-22 12:58:00,
2013-03-22 09:03:00,25.1,24.0,29.25,SW,225,2.3,4.9,90,0.00,,,0.00,Rainwise IP-100,2013-03-22 13:03:00,
2013-03-22 09:09:00,25.7,24.0,29.25,SSE,157,0.0,2.8,91,0.00,,,0.00,Rainwise IP-100,2013-03-22 13:09:00,
2013-03-22 09:14:00,25.8,24.0,29.25,SSE,157,1.4,4.2,90,0.00,,,0.00,Rainwise IP-100,2013-03-22 13:14:00,
2013-03-22 09:19:00,25.4,23.0,29.25,SSW,202,1.4,4.2,88,0.00,,,0.00,Rainwise IP-100,2013-03-22 13:19:00,
2013-03-22 09:24:00,25.7,23.0,29.25,SSW,202,0.0,4.9,88,0.00,,,0.00,Rainwise IP-100,2013-03-22 13:24:00,
2013-03-22 09:29:00,26.6,24.0,29.25,SE,135,0.0,3.3,89,0.00,,,0.00,Rainwise IP-100,2013-03-22 13:29:00,
2013-03-22 09:34:00,27.7,26.0,29.25,SSE,157,1.9,2.6,90,0.00,,,0.00,Rainwise IP-100,2013-03-22 13:34:00,
2013-03-22 09:39:00,28.7,26.0,29.25,SSE,157,0.0,3.7,89,0.00,,,0.00,Rainwise IP-100,2013-03-22 13:39:00,
2013-03-22 09:44:00,29.2,26.0,29.25,SSW,202,2.8,3.5,87,0.00,,,0.00,Rainwise IP-100,2013-03-22 13:44:00,
2013-03-22 09:49:00,29.6,28.0,29.25,WSW,247,1.4,3.7,86,0.00,,,0.00,Rainwise IP-100,2013-03-22 13:49:00,
2013-03-22 09:54:00,30.3,26.0,29.25,SSE,157,0.0,2.8,85,0.00,,,0.00,Rainwise IP-100,2013-03-22 13:54:00,
2013-03-22 09:59:00,29.4,24.0,29.25,ENE,67,3.5,4.2,82,0.00,,,0.00,Rainwise IP-100,2013-03-22 13:59:00,
2013-03-22 10:04:00,27.8,23.0,29.25,ENE,67,2.6,4.2,78,0.00,,,0.00,Rainwise IP-100,2013-03-22 14:04:00,
2013-03-22 10:09:00,28.1,23.0,29.25,SSE,157,0.0,3.7,77,0.00,,,0.00,Rainwise IP-100,2013-03-22 14:09:00,
2013-03-22 10:14:00,29.1,23.0,29.24,South,180,3.5,3.7,76,0.00,,,0.00,Rainwise IP-100,2013-03-22 14:14:00,
2013-03-22 10:19:00,30.1,24.0,29.25,SSW,202,2.6,4.7,74,0.00,,,0.00,Rainwise IP-100,2013-03-22 14:19:00,
2013-03-22 10:25:00,31.2,23.0,29.25,SSW,202,1.4,4.4,72,0.00,,,0.00,Rainwise IP-100,2013-03-22 14:25:00,
2013-03-22 10:30:00,31.5,24.0,29.24,ENE,67,4.2,4.7,70,0.00,,,0.00,Rainwise IP-100,2013-03-22 14:30:00,
2013-03-22 10:35:00,31.1,23.0,29.24,NE,45,0.0,4.4,69,0.00,,,0.00,Rainwise IP-100,2013-03-22 14:35:00,
2013-03-22 10:40:00,31.9,23.0,29.24,East,90,1.6,3.5,69,0.00,,,0.00,Rainwise IP-100,2013-03-22 14:40:00,
2013-03-22 10:45:00,31.8,23.0,29.24,East,90,4.7,4.9,67,0.06,,,0.01,Rainwise IP-100,2013-03-22 14:45:00,
2013-03-22 10:50:00,29.9,21.0,29.24,East,90,4.0,6.1,64,0.06,,,0.01,Rainwise IP-100,2013-03-22 14:50:00,
2013-03-22 10:55:00,30.0,21.0,29.24,ESE,112,4.0,4.4,63,0.00,,,0.01,Rainwise IP-100,2013-03-22 14:55:00,
2013-03-22 11:00:00,30.9,21.0,29.23,ENE,67,4.2,5.4,62,0.00,,,0.01,Rainwise IP-100,2013-03-22 15:00:00,
2013-03-22 11:05:00,30.8,18.0,29.24,ENE,67,5.8,5.8,61,0.00,,,0.01,Rainwise IP-100,2013-03-22 15:05:00,
2013-03-22 11:10:00,30.3,18.0,29.24,NE,45,4.9,8.9,60,0.00,,,0.01,Rainwise IP-100,2013-03-22 15:10:00,
2013-03-22 11:15:00,30.7,18.0,29.23,NNE,22,8.2,9.3,58,0.00,,,0.01,Rainwise IP-100,2013-03-22 15:15:00,
2013-03-22 11:20:00,31.8,18.0,29.23,ENE,67,4.2,10.7,56,0.00,,,0.01,Rainwise IP-100,2013-03-22 15:20:00,
2013-03-22 11:25:00,31.8,18.0,29.23,East,90,1.6,8.9,54,0.00,,,0.01,Rainwise IP-100,2013-03-22 15:25:00,
2013-03-22 11:30:00,31.2,16.0,29.23,SE,135,4.9,7.2,54,0.00,,,0.01,Rainwise IP-100,2013-03-22 15:30:00,
2013-03-22 11:35:00,31.4,16.0,29.23,ENE,67,3.0,5.4,53,0.00,,,0.01,Rainwise IP-100,2013-03-22 15:35:00,
2013-03-22 11:41:00,31.4,16.0,29.23,NNE,22,6.1,6.1,52,0.00,,,0.01,Rainwise IP-100,2013-03-22 15:41:00,
2013-03-22 11:46:00,32.2,16.0,29.23,SSW,202,1.9,7.2,51,0.00,,,0.01,Rainwise IP-100,2013-03-22 15:46:00,
2013-03-22 11:51:00,32.9,18.0,29.22,NE,45,4.0,6.1,50,0.00,,,0.01,Rainwise IP-100,2013-03-22 15:51:00,
2013-03-22 11:56:00,32.9,18.0,29.23,South,180,5.1,7.7,50,0.06,,,0.02,Rainwise IP-100,2013-03-22 15:56:00,
2013-03-22 12:01:00,33.0,18.0,29.22,SSE,157,0.0,6.3,50,0.06,,,0.02,Rainwise IP-100,2013-03-22 16:01:00,
2013-03-22 12:06:00,33.0,16.0,29.22,NNE,22,6.3,10.3,49,0.00,,,0.02,Rainwise IP-100,2013-03-22 16:06:00,
2013-03-22 12:11:00,32.5,18.0,29.21,ENE,67,4.0,10.5,50,0.00,,,0.02,Rainwise IP-100,2013-03-22 16:11:00,
2013-03-22 12:17:00,32.3,16.0,29.22,North,360,12.8,12.8,50,0.00,,,0.02,Rainwise IP-100,2013-03-22 16:17:00,
2013-03-22 12:22:00,33.1,16.0,29.22,ENE,67,2.8,13.3,49,0.00,,,0.02,Rainwise IP-100,2013-03-22 16:22:00,
2013-03-22 12:27:00,33.3,16.0,29.22,NNW,337,4.0,13.1,49,0.00,,,0.02,Rainwise IP-100,2013-03-22 16:27:00,
2013-03-22 12:32:00,33.4,16.0,29.22,NNE,22,6.5,8.6,48,0.00,,,0.02,Rainwise IP-100,2013-03-22 16:32:00,
2013-03-22 12:37:00,33.3,16.0,29.22,NNE,22,5.1,8.4,48,0.00,,,0.02,Rainwise IP-100,2013-03-22 16:37:00,
2013-03-22 12:42:00,33.1,16.0,29.22,NNW,337,3.3,7.2,48,0.00,,,0.02,Rainwise IP-100,2013-03-22 16:42:00,
2013-03-22 12:47:00,33.4,16.0,29.21,NNE,22,12.8,12.8,48,0.00,,,0.02,Rainwise IP-100,2013-03-22 16:47:00,
2013-03-22 12:52:00,33.7,16.0,29.21,NNE,22,7.7,12.8,47,0.00,,,0.02,Rainwise IP-100,2013-03-22 16:52:00,
2013-03-22 12:57:00,33.7,16.0,29.21,NNE,22,4.4,9.8,47,0.00,,,0.02,Rainwise IP-100,2013-03-22 16:57:00,
2013-03-22 13:02:00,33.9,16.0,29.21,SSW,202,1.9,7.7,47,0.00,,,0.02,Rainwise IP-100,2013-03-22 17:02:00,
2013-03-22 13:07:00,34.8,16.0,29.21,SSW,202,2.8,7.0,47,0.00,,,0.02,Rainwise IP-100,2013-03-22 17:07:00,
2013-03-22 13:13:00,35.2,16.0,29.21,NNE,22,7.2,10.7,46,0.00,,,0.02,Rainwise IP-100,2013-03-22 17:13:00,
2013-03-22 13:18:00,35.1,16.0,29.21,NNW,337,0.0,10.5,46,0.00,,,0.02,Rainwise IP-100,2013-03-22 17:18:00,
2013-03-22 13:23:00,35.1,16.0,29.21,NNW,337,5.6,7.7,46,0.00,,,0.02,Rainwise IP-100,2013-03-22 17:23:00,
2013-03-22 13:28:00,35.3,16.0,29.21,NE,45,4.4,6.8,46,0.00,,,0.02,Rainwise IP-100,2013-03-22 17:28:00,
2013-03-22 13:33:00,35.9,18.0,29.20,North,360,10.3,10.3,46,0.00,,,0.03,Rainwise IP-100,2013-03-22 17:33:00,
2013-03-22 13:38:00,36.0,18.0,29.21,NNW,337,3.5,12.4,46,0.06,,,0.03,Rainwise IP-100,2013-03-22 17:38:00,
2013-03-22 13:43:00,35.6,16.0,29.21,SW,225,8.2,10.7,45,0.06,,,0.03,Rainwise IP-100,2013-03-22 17:43:00,
2013-03-22 13:48:00,35.5,16.0,29.21,WSW,247,3.7,9.1,45,0.00,,,0.03,Rainwise IP-100,2013-03-22 17:48:00,
2013-03-22 13:53:00,35.4,16.0,29.21,SSE,157,1.2,8.6,46,0.00,,,0.03,Rainwise IP-100,2013-03-22 17:53:00,
2013-03-22 13:58:00,35.6,18.0,29.21,NE,45,1.4,7.7,47,0.00,,,0.03,Rainwise IP-100,2013-03-22 17:58:00,
2013-03-22 14:03:00,35.8,18.0,29.20,NNE,22,6.1,9.1,48,0.00,,,0.03,Rainwise IP-100,2013-03-22 18:03:00,
2013-03-22 14:08:00,35.8,18.0,29.20,SSE,157,3.0,10.3,49,0.00,,,0.03,Rainwise IP-100,2013-03-22 18:08:00,
2013-03-22 14:13:00,35.9,18.0,29.20,SSE,157,4.2,7.9,49,0.00,,,0.03,Rainwise IP-100,2013-03-22 18:13:00,
2013-03-22 14:18:00,36.1,18.0,29.21,WSW,247,5.6,10.3,49,0.00,,,0.03,Rainwise IP-100,2013-03-22 18:18:00,
2013-03-22 14:23:00,35.8,18.0,29.21,WNW,292,3.7,8.2,49,0.00,,,0.03,Rainwise IP-100,2013-03-22 18:23:00,
2013-03-22 14:29:00,35.7,18.0,29.20,WSW,247,3.3,6.3,49,0.00,,,0.03,Rainwise IP-100,2013-03-22 18:29:00,
2013-03-22 14:34:00,36.0,18.0,29.20,SE,135,1.9,10.5,49,0.00,,,0.03,Rainwise IP-100,2013-03-22 18:34:00,
2013-03-22 14:39:00,36.0,18.0,29.20,NNW,337,1.6,8.4,49,0.00,,,0.03,Rainwise IP-100,2013-03-22 18:39:00,
2013-03-22 14:44:00,35.8,18.0,29.20,West,270,2.1,11.4,49,0.00,,,0.03,Rainwise IP-100,2013-03-22 18:44:00,
2013-03-22 14:49:00,35.3,16.0,29.20,ESE,112,2.1,7.9,47,0.00,,,0.03,Rainwise IP-100,2013-03-22 18:49:00,
2013-03-22 14:54:00,34.9,16.0,29.20,SSW,202,1.6,11.2,47,0.00,,,0.03,Rainwise IP-100,2013-03-22 18:54:00,
2013-03-22 14:59:00,34.9,16.0,29.20,NNW,337,3.3,6.5,47,0.00,,,0.03,Rainwise IP-100,2013-03-22 18:59:00,
2013-03-22 15:04:00,34.8,16.0,29.20,ENE,67,2.1,6.5,47,0.00,,,0.03,Rainwise IP-100,2013-03-22 19:04:00,
2013-03-22 15:09:00,34.6,16.0,29.20,ENE,67,5.4,10.5,47,0.00,,,0.03,Rainwise IP-100,2013-03-22 19:09:00,
2013-03-22 15:14:00,34.8,16.0,29.19,NNE,22,2.8,8.9,47,0.00,,,0.03,Rainwise IP-100,2013-03-22 19:14:00,
2013-03-22 15:19:00,35.2,16.0,29.19,ENE,67,1.6,8.2,47,0.00,,,0.03,Rainwise IP-100,2013-03-22 19:19:00,
2013-03-22 15:24:00,35.5,18.0,29.19,NNE,22,4.4,11.0,46,0.00,,,0.03,Rainwise IP-100,2013-03-22 19:24:00,
2013-03-22 15:29:00,36.0,16.0,29.20,North,360,15.9,15.9,44,0.00,,,0.04,Rainwise IP-100,2013-03-22 19:29:00,
2013-03-22 15:34:00,36.1,16.0,29.19,NNE,22,7.7,15.9,44,0.06,,,0.04,Rainwise IP-100,2013-03-22 19:34:00,
2013-03-22 15:39:00,35.7,18.0,29.20,NNE,22,5.4,13.1,46,0.06,,,0.04,Rainwise IP-100,2013-03-22 19:39:00,
2013-03-22 15:45:00,35.2,18.0,29.20,North,360,7.9,11.7,48,0.00,,,0.04,Rainwise IP-100,2013-03-22 19:45:00,
2013-03-22 15:50:00,35.2,18.0,29.20,NW,315,3.3,11.0,48,0.00,,,0.04,Rainwise IP-100,2013-03-22 19:50:00,
2013-03-22 15:55:00,35.1,18.0,29.20,ENE,67,2.6,5.8,48,0.00,,,0.04,Rainwise IP-100,2013-03-22 19:55:00,
2013-03-22 16:00:00,35.2,18.0,29.20,SSW,202,5.4,7.9,48,0.00,,,0.04,Rainwise IP-100,2013-03-22 20:00:00,
2013-03-22 16:05:00,35.4,16.0,29.20,NNW,337,4.2,7.9,47,0.00,,,0.04,Rainwise IP-100,2013-03-22 20:05:00,
2013-03-22 16:10:00,35.5,18.0,29.20,NNW,337,4.9,6.3,47,0.00,,,0.04,Rainwise IP-100,2013-03-22 20:10:00,
2013-03-22 16:15:00,35.4,18.0,29.20,ENE,67,2.1,6.1,48,0.00,,,0.04,Rainwise IP-100,2013-03-22 20:15:00,
2013-03-22 16:20:00,35.4,18.0,29.20,SSW,202,4.9,6.3,48,0.00,,,0.04,Rainwise IP-100,2013-03-22 20:20:00,
2013-03-22 16:25:00,35.8,18.0,29.20,SSE,157,6.5,11.4,47,0.00,,,0.04,Rainwise IP-100,2013-03-22 20:25:00,
2013-03-22 16:30:00,36.0,18.0,29.20,SSE,157,5.1,7.0,47,0.00,,,0.04,Rainwise IP-100,2013-03-22 20:30:00,
2013-03-22 16:35:00,36.5,18.0,29.20,NNW,337,4.9,6.8,47,0.00,,,0.04,Rainwise IP-100,2013-03-22 20:35:00,
2013-03-22 16:40:00,36.7,18.0,29.20,NNW,337,2.8,14.9,46,0.00,,,0.04,Rainwise IP-100,2013-03-22 20:40:00,
2013-03-22 16:45:00,36.4,18.0,29.20,SSE,157,2.6,11.4,46,0.00,,,0.04,Rainwise IP-100,2013-03-22 20:45:00,
2013-03-22 16:50:00,35.8,18.0,29.20,NNE,22,6.8,11.7,46,0.00,,,0.04,Rainwise IP-100,2013-03-22 20:50:00,
2013-03-22 16:55:00,35.3,18.0,29.20,NNE,22,8.9,9.3,48,0.00,,,0.04,Rainwise IP-100,2013-03-22 20:55:00,
2013-03-22 17:01:00,34.7,18.0,29.21,NNE,22,6.1,13.5,52,0.00,,,0.04,Rainwise IP-100,2013-03-22 21:01:00,
2013-03-22 17:06:00,34.4,21.0,29.21,North,360,7.7,14.0,56,0.00,,,0.04,Rainwise IP-100,2013-03-22 21:06:00,
2013-03-22 17:11:00,34.6,21.0,29.20,NNW,337,10.3,13.1,57,0.00,,,0.04,Rainwise IP-100,2013-03-22 21:11:00,
2013-03-22 17:16:00,34.7,23.0,29.21,North,360,4.4,12.6,58,0.00,,,0.04,Rainwise IP-100,2013-03-22 21:16:00,
2013-03-22 17:21:00,34.9,21.0,29.21,North,360,3.7,10.7,57,0.00,,,0.04,Rainwise IP-100,2013-03-22 21:21:00,
2013-03-22 17:26:00,34.9,21.0,29.21,NNE,22,4.2,6.8,56,0.00,,,0.04,Rainwise IP-100,2013-03-22 21:26:00,
2013-03-22 17:31:00,34.9,21.0,29.21,SE,135,1.9,6.1,55,0.00,,,0.04,Rainwise IP-100,2013-03-22 21:31:00,
2013-03-22 17:37:00,34.8,21.0,29.21,SW,225,1.9,9.1,54,0.00,,,0.04,Rainwise IP-100,2013-03-22 21:37:00,
2013-03-22 17:42:00,34.5,21.0,29.22,SE,135,3.7,9.6,54,0.00,,,0.04,Rainwise IP-100,2013-03-22 21:42:00,
2013-03-22 17:47:00,33.6,23.0,29.22,ESE,112,0.0,7.0,60,0.00,,,0.04,Rainwise IP-100,2013-03-22 21:47:00,
2013-03-22 17:52:00,33.0,23.0,29.22,ENE,67,1.2,2.3,64,0.00,,,0.04,Rainwise IP-100,2013-03-22 21:52:00,
2013-03-22 17:57:00,32.5,24.0,29.23,NE,45,5.1,8.2,67,0.00,,,0.04,Rainwise IP-100,2013-03-22 21:57:00,
2013-03-22 18:02:00,31.9,24.0,29.22,NNW,337,0.0,6.1,70,0.00,,,0.04,Rainwise IP-100,2013-03-22 22:02:00,
2013-03-22 18:07:00,31.9,24.0,29.23,NNW,337,1.4,2.1,70,0.00,,,0.04,Rainwise IP-100,2013-03-22 22:07:00,
2013-03-22 18:12:00,32.0,24.0,29.23,South,180,1.9,3.5,71,0.00,,,0.04,Rainwise IP-100,2013-03-22 22:12:00,
2013-03-22 18:17:00,31.9,24.0,29.23,SW,225,3.0,4.2,73,0.00,,,0.04,Rainwise IP-100,2013-03-22 22:17:00,
2013-03-22 18:22:00,31.9,24.0,29.23,South,180,2.6,3.5,74,0.00,,,0.04,Rainwise IP-100,2013-03-22 22:22:00,
2013-03-22 18:27:00,31.9,24.0,29.22,SSW,202,0.0,4.9,74,0.00,,,0.04,Rainwise IP-100,2013-03-22 22:27:00,
2013-03-22 18:32:00,31.9,24.0,29.23,ESE,112,1.2,2.3,74,0.00,,,0.04,Rainwise IP-100,2013-03-22 22:32:00,
2013-03-22 18:37:00,32.0,24.0,29.23,NNW,337,4.0,5.6,73,0.00,,,0.04,Rainwise IP-100,2013-03-22 22:37:00,
2013-03-22 18:42:00,31.9,24.0,29.24,ENE,67,3.7,7.5,74,0.00,,,0.04,Rainwise IP-100,2013-03-22 22:42:00,
2013-03-22 18:47:00,31.6,26.0,29.23,NNW,337,2.6,5.8,76,0.00,,,0.04,Rainwise IP-100,2013-03-22 22:47:00,
2013-03-22 18:53:00,31.4,24.0,29.23,NNW,337,0.0,5.1,77,0.00,,,0.04,Rainwise IP-100,2013-03-22 22:53:00,
2013-03-22 18:58:00,31.3,24.0,29.24,NNW,337,4.4,5.4,78,0.00,,,0.04,Rainwise IP-100,2013-03-22 22:58:00,
2013-03-22 19:03:00,31.2,24.0,29.24,North,360,5.6,9.1,79,0.00,,,0.04,Rainwise IP-100,2013-03-22 23:03:00,
2013-03-22 19:08:00,31.0,24.0,29.24,NE,45,2.6,6.8,79,0.00,,,0.04,Rainwise IP-100,2013-03-22 23:08:00,
2013-03-22 19:13:00,30.8,26.0,29.25,NNW,337,0.0,3.3,80,0.00,,,0.04,Rainwise IP-100,2013-03-22 23:13:00,
2013-03-22 19:18:00,30.5,26.0,29.25,NNW,337,0.0,1.4,82,0.00,,,0.04,Rainwise IP-100,2013-03-22 23:18:00,
2013-03-22 19:23:00,30.4,26.0,29.25,NNW,337,0.0,0.0,83,0.00,,,0.04,Rainwise IP-100,2013-03-22 23:23:00,
2013-03-22 19:28:00,30.2,26.0,29.25,SSW,202,1.6,4.7,83,0.00,,,0.04,Rainwise IP-100,2013-03-22 23:28:00,
2013-03-22 19:33:00,30.1,26.0,29.25,WSW,247,1.4,5.1,83,0.00,,,0.04,Rainwise IP-100,2013-03-22 23:33:00,
2013-03-22 19:38:00,30.3,26.0,29.25,SE,135,0.0,2.8,82,0.00,,,0.04,Rainwise IP-100,2013-03-22 23:38:00,
2013-03-22 19:43:00,30.5,26.0,29.25,WSW,247,1.9,6.5,80,0.00,,,0.04,Rainwise IP-100,2013-03-22 23:43:00,
2013-03-22 19:48:00,30.6,26.0,29.25,NNW,337,2.6,4.0,80,0.00,,,0.04,Rainwise IP-100,2013-03-22 23:48:00,
2013-03-22 19:53:00,30.6,24.0,29.25,NE,45,0.0,4.2,78,0.00,,,0.04,Rainwise IP-100,2013-03-22 23:53:00,
2013-03-22 19:58:00,30.7,24.0,29.26,SSW,202,0.0,3.5,77,0.00,,,0.04,Rainwise IP-100,2013-03-22 23:58:00,
2013-03-22 20:03:00,30.7,24.0,29.26,ESE,112,0.0,2.6,77,0.00,,,0.04,Rainwise IP-100,2013-03-23 00:03:00,
2013-03-22 20:09:00,30.8,24.0,29.26,SSW,202,1.4,3.0,76,0.00,,,0.04,Rainwise IP-100,2013-03-23 00:09:00,
2013-03-22 20:14:00,30.9,24.0,29.26,North,360,0.0,3.0,75,0.00,,,0.04,Rainwise IP-100,2013-03-23 00:14:00,
2013-03-22 20:19:00,31.0,24.0,29.27,East,90,2.1,6.3,74,0.00,,,0.04,Rainwise IP-100,2013-03-23 00:19:00,
2013-03-22 20:24:00,31.1,23.0,29.26,NE,45,2.8,5.1,73,0.00,,,0.04,Rainwise IP-100,2013-03-23 00:24:00,
2013-03-22 20:29:00,31.1,23.0,29.27,ESE,112,0.0,5.4,72,0.00,,,0.04,Rainwise IP-100,2013-03-23 00:29:00,
2013-03-22 20:34:00,31.1,23.0,29.27,ENE,67,4.0,6.8,72,0.00,,,0.04,Rainwise IP-100,2013-03-23 00:34:00,
2013-03-22 20:39:00,31.0,23.0,29.27,NNE,22,1.9,6.8,72,0.00,,,0.04,Rainwise IP-100,2013-03-23 00:39:00,
2013-03-22 20:44:00,30.8,23.0,29.27,South,180,2.6,7.2,73,0.00,,,0.04,Rainwise IP-100,2013-03-23 00:44:00,
2013-03-22 20:49:00,30.5,24.0,29.28,WNW,292,1.4,4.9,75,0.00,,,0.04,Rainwise IP-100,2013-03-23 00:49:00,
2013-03-22 20:54:00,30.3,24.0,29.28,SSW,202,1.4,4.7,77,0.00,,,0.04,Rainwise IP-100,2013-03-23 00:54:00,
2013-03-22 20:59:00,30.1,24.0,29.28,SSW,202,1.4,6.3,78,0.00,,,0.04,Rainwise IP-100,2013-03-23 00:59:00,
2013-03-22 21:04:00,30.1,24.0,29.28,SSE,157,3.5,8.4,78,0.00,,,0.04,Rainwise IP-100,2013-03-23 01:04:00,
2013-03-22 21:09:00,30.1,24.0,29.28,WSW,247,1.6,6.3,79,0.00,,,0.04,Rainwise IP-100,2013-03-23 01:09:00,
2013-03-22 21:14:00,30.1,24.0,29.28,ESE,112,1.6,4.7,79,0.00,,,0.04,Rainwise IP-100,2013-03-23 01:14:00,
2013-03-22 21:19:00,30.0,26.0,29.28,ENE,67,1.4,3.5,80,0.00,,,0.04,Rainwise IP-100,2013-03-23 01:19:00,
2013-03-22 21:25:00,29.9,26.0,29.29,NNE,22,2.6,4.0,80,0.00,,,0.04,Rainwise IP-100,2013-03-23 01:25:00,
2013-03-22 21:30:00,29.8,26.0,29.29,East,90,0.0,5.4,81,0.00,,,0.04,Rainwise IP-100,2013-03-23 01:30:00,
2013-03-22 21:35:00,29.6,26.0,29.28,North,360,11.7,11.7,81,0.00,,,0.04,Rainwise IP-100,2013-03-23 01:35:00,
2013-03-22 21:40:00,29.6,26.0,29.29,NNW,337,0.0,12.1,81,0.00,,,0.04,Rainwise IP-100,2013-03-23 01:40:00,
2013-03-22 21:45:00,29.7,24.0,29.29,ENE,67,2.3,12.8,79,0.00,,,0.04,Rainwise IP-100,2013-03-23 01:45:00,
2013-03-22 21:50:00,29.8,24.0,29.29,NNE,22,4.9,7.0,78,0.00,,,0.04,Rainwise IP-100,2013-03-23 01:50:00,
2013-03-22 21:55:00,29.7,24.0,29.29,NNW,337,5.6,8.9,77,0.00,,,0.04,Rainwise IP-100,2013-03-23 01:55:00,
2013-03-22 22:00:00,29.6,24.0,29.29,NW,315,0.0,6.8,77,0.00,,,0.04,Rainwise IP-100,2013-03-23 02:00:00,
2013-03-22 22:05:00,29.5,24.0,29.29,NNE,22,2.1,2.8,77,0.00,,,0.04,Rainwise IP-100,2013-03-23 02:05:00,
2013-03-22 22:10:00,29.4,23.0,29.29,SSE,157,0.0,6.8,76,0.00,,,0.04,Rainwise IP-100,2013-03-23 02:10:00,
2013-03-22 22:15:00,29.2,23.0,29.29,NNW,337,1.6,4.4,75,0.00,,,0.04,Rainwise IP-100,2013-03-23 02:15:00,
2013-03-22 22:20:00,28.9,23.0,29.29,WSW,247,0.0,2.8,74,0.00,,,0.04,Rainwise IP-100,2013-03-23 02:20:00,
2013-03-22 22:25:00,28.6,23.0,29.29,SSE,157,0.0,2.8,75,0.00,,,0.04,Rainwise IP-100,2013-03-23 02:25:00,
2013-03-22 22:30:00,28.6,23.0,29.28,NNW,337,0.0,3.5,74,0.00,,,0.04,Rainwise IP-100,2013-03-23 02:30:00,
2013-03-22 22:36:00,28.6,23.0,29.28,NNE,22,1.4,6.1,73,0.00,,,0.04,Rainwise IP-100,2013-03-23 02:36:00,
2013-03-22 22:41:00,28.4,21.0,29.29,West,270,2.1,4.2,73,0.00,,,0.04,Rainwise IP-100,2013-03-23 02:41:00,
2013-03-22 22:46:00,28.3,21.0,29.28,WSW,247,2.3,4.9,73,0.00,,,0.04,Rainwise IP-100,2013-03-23 02:46:00,
2013-03-22 22:51:00,28.3,21.0,29.28,West,270,2.8,7.5,73,0.00,,,0.04,Rainwise IP-100,2013-03-23 02:51:00,
2013-03-22 22:56:00,28.2,21.0,29.28,NW,315,5.8,7.7,74,0.00,,,0.04,Rainwise IP-100,2013-03-23 02:56:00,
2013-03-22 23:01:00,28.2,21.0,29.28,NNE,22,3.0,7.9,73,0.00,,,0.04,Rainwise IP-100,2013-03-23 03:01:00,
2013-03-22 23:06:00,28.1,21.0,29.29,NNE,22,3.3,5.6,72,0.00,,,0.04,Rainwise IP-100,2013-03-23 03:06:00,
2013-03-22 23:11:00,27.9,21.0,29.28,NNW,337,1.6,8.2,72,0.00,,,0.04,Rainwise IP-100,2013-03-23 03:11:00,
2013-03-22 23:16:00,27.8,21.0,29.29,NW,315,2.6,7.5,72,0.00,,,0.04,Rainwise IP-100,2013-03-23 03:16:00,
2013-03-22 23:21:00,27.7,21.0,29.28,SW,225,0.0,4.7,72,0.00,,,0.04,Rainwise IP-100,2013-03-23 03:21:00,
2013-03-22 23:27:00,27.6,21.0,29.28,SW,225,0.0,3.0,72,0.00,,,0.04,Rainwise IP-100,2013-03-23 03:27:00,
2013-03-22 23:32:00,27.3,21.0,29.28,SSW,202,2.8,4.0,73,0.00,,,0.04,Rainwise IP-100,2013-03-23 03:32:00,
2013-03-22 23:37:00,27.0,21.0,29.28,SSE,157,1.4,5.4,73,0.00,,,0.04,Rainwise IP-100,2013-03-23 03:37:00,
2013-03-22 23:42:00,26.9,21.0,29.28,NE,45,2.6,6.1,74,0.00,,,0.04,Rainwise IP-100,2013-03-23 03:42:00,
2013-03-22 23:47:00,27.1,21.0,29.28,South,180,4.9,6.5,74,0.00,,,0.04,Rainwise IP-100,2013-03-23 03:47:00,
2013-03-22 23:52:00,27.2,21.0,29.28,SSW,202,2.8,9.1,74,0.00,,,0.04,Rainwise IP-100,2013-03-23 03:52:00,
2013-03-22 23:57:00,27.1,21.0,29.29,SSW,202,1.4,4.7,74,0.00,,,0.04,Rainwise IP-100,2013-03-23 03:57:00,